Location: Unspecified
(33.6682°S, 0.0000°E)
Time: 01:21:19
(UTC+00:00)

Vanguard 2 Rocket - Pass Details

Date: 19 June 2019
Orbit: 553 x 3327 km, 32.9° (Epoch: 16 August)

Event Time Altitude Azimuth Distance (km) Brightness Sun altitude
Rises 12:06:04 0° 274° (W) 5,225 10.8 32.9°
Reaches altitude 10° 12:10:13 10° 274° (W) 3,770 10.2 32.9°
Maximum altitude 12:19:06 85° 0° (N) 1,003 7.8 32.8°
Drops below altitude 10° 12:24:16 10° 89° (E) 2,249 9.0 32.6°
Sets 12:26:12 0° 89° (E) 3,010 9.5 32.6°
